Location: New Canada
(47.1017°N, 68.5042°W)
Time: 23:16:52
(UTC+00:00)

RS-44 - Pass Details

Date: 05 April 2023
Orbit: 1175 x 1510 km, 82.5° (Epoch: 02 June)

Event Time Altitude Azimuth Distance (km) Brightness Sun altitude
Rises 05:18:50 0° 350° (N) 4,420 ? -36.1°
Reaches altitude 10° 05:21:34 10° 351° (N) 3,485 ? -36.0°
Maximum altitude 05:30:01 86° 81° (E) 1,469 ? -35.6°
Enters shadow 05:30:01 86° 82° (E) 1,469 ? -35.6°
